Showing default

FLOCK 4G 8, 62613

Orbit data source: Space-Track

FLOCK 4G 8, 62613 is a payload satellite owned by Planet (US) in SSO that was launched on Tue, 14 Jan 2025 UTC via an FALCON 9 launch vehicle from the Air Force Western Test Range (AFWTR). Payload-class satellites include a variety of spacecraft equipped with specific instruments for various scientific and technological missions. These include communications satellites like Starlink; space stations such as the ISS; scientific satellites like the Hubble; Earth observation satellites from companies like Planet Labs, Umbra, and HawkEye 360; GPS; miniature CubeSats for education and research; and military/defense satellites.

Loading next visibility...
Identifier
62613, 2025-009E
Orbit
SSO
Country
Flag of USUS
Related business
Manufacturer
Planet
Mission
Operational Commercial Imaging
Bus & Motor
CUBESAT 3U, Unknown motor
Mass
5.7 kg wet, 5.7 kg dry
Launch date (UTC)
2025-01-14 (2 years ago)
Launch vehicle
FALCON 9
Launch site
Air Force Western Test Range (AFWTR)
Object type
Payload
Rocket body
Debris
Shape & HBR
Box + 2 Pan, 1.0 m
Radar Cross Section
0.072 m², Medium (>0.1 m² and < 1m²)

Expand to show TLE details & history
Last TLE update: 9 hours ago

TLE from 9 hours ago
0 FLOCK 4G 8
1 62613U 25009E   26238.17932970  .00009669  00000-0  32567-3 0  9999
2 62613  97.3981 319.9348 0005465  76.7939 283.3911 15.30953425 89624
Epoch: 2026-08-26T04:18Z
TLE epoch observation values (Epoch: 2026-08-26T04:18:14.086Z)
Latitude
-0.00005°
Longitude
-79.05993°
Altitude
475.206 km
Speed
7.629 km/s
True Right ascension
21h 19m 44s
True Declination
0° 00' 00"
Sunlit
Object was in full shadow at epoch
Visualization orbit readout
Latitude
Unknown
Longitude
Unknown
Altitude
Unknown
Speed
Unknown
Apparent Right ascension
Unknown
Apparent Declination
Unknown
Sunlit
N/A
Visualization observer readout
Local Sidereal Time
04:54:55
Azimuth
Unknown
Elevation
Unknown
Doppler factor
Unknown
Orbital elements
Apogee altitude
473.66 km
Perigee altitude
466.175 km
Semi-major axis
6,848.054 km
Eccentricity
0.00055
Inclination
97.3981°
RAAN
319.9348°
Arg. of periapsis
76.7939°
True anomaly
283.33017°
Mean anomaly
283.3911°
Eccentric anomaly
283.36064°
Mean motion
3.82994 °/min
Orbital period
94 mins
BSTAR
0.00032567
Loading maneuver chart data...
Computing Atmospheric mass density...
Loading historical data...
Loading historical data...
Loading historical data...
Loading historical data...
Loading historical data...
Loading historical data...
Loading historical data...

Documentation

Showing up to 5 results
|